Notices

What's New in latest Release from April 7th, 2021:

- Updated Glossary, including Speed of Maximum Gust, and Total Hourly Precipitation

- Updated national and regional climate services offices contacts and prices information

- Addition of station inventory lists for 1981-2010, 1971-2000, and 1961-1990 Normals.

If you haven't already, please take our survey and provide feedback about our website: https://eccc.sondage-survey.ca/f/LanguageSelection.aspx?s=442ca660-fcf1-47c0-95a9-59707d6fd709

Hourly Data Report for July 13, 2003

TORONTO CITY
ONTARIO

43°40'00.000" N
79°24'00.000" W
112.50 m
6158355
71508
XTO

Download Data

Hourly Data (July 2003)
Hourly Data Report for July 13, 2003
TIME
LST
Temp Definition
°C
Dew Point Definition
°C
Rel Hum Definition
%
Precip. Amount Definition
mm

Wind Dir Definition
10's deg

Wind Spd Definition
km/h
Visibility Definition
km
Stn Press Definition
kPa
Hmdx Definition


Wind Chill Definition


Weather Definition


00:00 18.3 12.9 71   LegendMM LegendMM LegendMM 100.12     LegendNANA
01:00 18.2 12.9 71   LegendMM LegendMM LegendMM 100.19     LegendNANA
02:00 17.0 13.7 81   LegendMM LegendMM LegendMM 100.22     LegendNANA
03:00 16.3 14.0 86   LegendMM LegendMM LegendMM 100.26     LegendNANA
04:00 14.7 13.2 91   LegendMM LegendMM LegendMM 100.27     LegendNANA
05:00 14.5 13.6 94   LegendMM LegendMM LegendMM 100.29     LegendNANA
06:00 15.9 13.8 87   LegendMM LegendMM LegendMM 100.35     LegendNANA
07:00 17.5 13.2 76   LegendMM LegendMM LegendMM 100.39     LegendNANA
08:00 19.2 13.3 69   LegendMM LegendMM LegendMM 100.42     LegendNANA
09:00 21.9 14.4 62   LegendMM LegendMM LegendMM 100.45 26   LegendNANA
10:00 23.6 15.2 59   LegendMM LegendMM LegendMM 100.48 28   LegendNANA
11:00 23.0 14.9 60   LegendMM LegendMM LegendMM 100.51 27   LegendNANA
12:00 24.2 15.2 57   LegendMM LegendMM LegendMM 100.49 28   LegendNANA
13:00 25.4 14.9 52   LegendMM LegendMM LegendMM 100.48 29   LegendNANA
14:00 25.4 15.3 54   LegendMM LegendMM LegendMM 100.47 30   LegendNANA
15:00 26.5 14.2 47   LegendMM LegendMM LegendMM 100.44 30   LegendNANA
16:00 26.6 12.4 41   LegendMM LegendMM LegendMM 100.43 29   LegendNANA
17:00 25.6 11.3 41   LegendMM LegendMM LegendMM 100.39 28   LegendNANA
18:00 23.7 12.3 49   LegendMM LegendMM LegendMM 100.39 26   LegendNANA
19:00 22.6 13.6 57   LegendMM LegendMM LegendMM 100.43 26   LegendNANA
20:00 20.7 12.7 60   LegendMM LegendMM LegendMM 100.45     LegendNANA
21:00 19.5 12.5 64   LegendMM LegendMM LegendMM 100.53     LegendNANA
22:00 18.7 12.6 68   LegendMM LegendMM LegendMM 100.57     LegendNANA
23:00 17.9 12.7 72   LegendMM LegendMM LegendMM 100.56     LegendNANA

Notes on Data Quality.

Legend

  • E = Estimated
  • M = Missing
  • NA = Not Available*
  • [empty] = Indicates an unobserved value
Date modified: